Regional Weather Roundup
Issued by NWS

Home | Current Version | Previous Version | Graphics & Text | Print | Product List | Glossary On
Versions: 1 2 3 4 5 6 7 8 9 10 11 12 13 14 15 16 17 18 19 20 21 22 23 24 25 26 27 28 29 30 31 32 33 34 35 36 37 38 39 40 41 42 43 44 45 46 47 48 49 50
000
ASUS43 KLMK 201210
RWRKY
KENTUCKY REGIONAL WEATHER ROUNDUP
NATIONAL WEATHER SERVICE LOUISVILLE KY
800 AM EDT SUN APR 20 2014

NOTE "FAIR" INDICATES FEW OR NO CLOUDS BELOW 12,000 FEET
WITH NO SIGNIFICANT WEATHER AND/OR OBSTRUCTIONS TO VISIBILITY.

KYZ001>023-026-027-061>063-070>075-201300-
WESTERN AND SOUTH CENTRAL KENTUCKY

CITY           SKY/WX    TMP DP  RH WIND       PRES   REMARKS
PADUCAH        CLEAR     49  43  80 CALM      30.21R
HENDERSON      CLEAR     46  41  81 CALM      30.23R
OWENSBORO      CLEAR     48  44  86 CALM      30.23R
HOPKINSVILLE   CLEAR     48  43  81 E1        30.22R
BOWLING GREEN  CLEAR     46  40  79 CALM      30.23R
GLASGOW        SUNNY     46  38  73 CALM      30.22R
$$

KYZ024-025-028>034-038-045-046-053-201300-
NORTH CENTRAL KENTUCKY

CITY           SKY/WX    TMP DP  RH WIND       PRES   REMARKS
LOUISVILLE/SDF MOSUNNY   50  39  66 N6        30.25R
LOUISVILLE/LOU MOSUNNY   50  39  66 NW6       30.25S
FORT KNOX      SUNNY     49  38  66 NE6       30.23R
$$

KYZ035>037-039>044-047>052-055>060-089>105-201300-
NORTHEAST KENTUCKY

CITY           SKY/WX    TMP DP  RH WIND       PRES   REMARKS
LEXINGTON      SUNNY     50  38  63 E6        30.25R
COVINGTON      PTSUNNY   48  34  58 NE5       30.27R
FRANKFORT      SUNNY     46  37  71 N3        30.25R
$$

KYZ054-064>069-076>088-106>120-201300-
SOUTHEAST KENTUCKY

CITY           SKY/WX    TMP DP  RH WIND       PRES   REMARKS
JACKSON        MOSUNNY   54  32  43 E3        30.26R
LONDON         SUNNY     46  38  73 CALM      30.25R
SOMERSET       SUNNY     43  37  81 CALM      30.25S
MIDDLESBORO    MOSUNNY   44  41  90 CALM      30.27R
MONTICELLO     SUNNY     43  41  93 CALM      30.25R
$$




USA.gov is the U.S. government's official web portal to all federal, state and local government web resources and services.